EW9056 Weather Reports


time (UTC)temp
F
wind
direction
speed
knots
gust
knots
rain 1hr
in
rain 24hr
in
rain mn
in
humidity
%
barometer
mb
20260504081558 46 33 4.3 13.9 0.00 0.00 0.00 61 1015.3
20260504044554 54 35 10.4 20.9 0.00 0.00 0.00 38 1011.6
20260504043047 55 25 7.0 14.8 0.00 0.00 0.00 42 1010.9
20260504041543 54 22 0.9 5.2 0.00 0.00 0.00 42 1010.4
20260504040054 55 347 0.0 2.6 0.00 0.00 0.00 40 1010.0
20260504034550 56 2 0.0 2.6 0.00 0.00 0.00 39 1009.8
20260504033035 57 353 0.9 7.8 0.00 0.00 0.00 37 1009.5
20260504031533 58 45 1.7 10.4 0.00 0.00 0.00 36 1009.4
20260504030130 59 24 0.9 9.6 0.00 0.00 0.00 36 1009.1
20260504024526 60 32 2.6 8.7 0.00 0.00 0.00 33 1009.0
20260504023025 62 21 0.9 7.0 0.00 0.00 0.00 30 1009.0
20260504021523 64 2 0.9 7.8 0.00 0.00 0.00 26 1008.9
20260504020018 67 11 0.0 5.2 0.00 0.00 0.00 22 1008.8
20260504014514 69 338 0.0 6.1 0.00 0.00 0.00 20 1008.9
20260504013013 70 328 0.9 8.7 0.00 0.00 0.00 19 1008.9
20260504011510 71 328 0.0 7.8 0.00 0.00 0.00 18 1008.9
20260504010038 72 342 0.9 10.4 0.00 0.00 0.00 18 1009.1
20260504004536 72 342 5.2 13.0 0.00 0.00 0.00 18 1009.0
20260504003034 72 315 2.6 11.3 0.00 0.00 0.00 18 1009.1
20260504001528 73 315 4.3 14.8 0.00 0.00 0.00 18 1009.3
20260504000025 72 310 1.7 11.3 0.00 0.00 0.00 18 1009.4
20260503234523 73 316 1.7 13.9 0.00 0.00 0.00 18 1009.6
20260503233049 73 321 6.1 13.9 0.00 0.00 0.00 18 1009.7
20260503231552 74 304 2.6 14.8 0.00 0.00 0.00 19 1009.8
20260503230043 73 302 6.1 16.5 0.00 0.00 0.00 18 1009.8
20260503224541 74 15 2.6 13.0 0.00 0.00 0.00 18 1009.8
20260503223038 74 301 1.7 13.0 0.00 0.00 0.00 19 1009.9
20260503221542 73 286 2.6 13.0 0.00 0.00 0.00 20 1010.1
20260503220032 73 305 0.0 13.0 0.00 0.00 0.00 19 1010.2
20260503214531 73 319 0.0 11.3 0.00 0.00 0.00 20 1010.3
20260503213034 73 328 0.0 13.0 0.00 0.00 0.00 20 1010.4
20260503211532 73 319 0.0 12.2 0.00 0.00 0.00 19 1010.8
20260503210019 72 294 5.2 12.2 0.00 0.00 0.00 20 1011.1
20260503204516 73 319 2.6 12.2 0.00 0.00 0.00 20 1011.2
20260503201510 72 296 6.1 11.3 0.00 0.00 0.00 21 1011.3
20260503200004 72 302 5.2 13.0 0.00 0.00 0.00 19 1011.5
20260503194600 72 305 0.0 14.8 0.00 0.00 0.00 18 1011.7
20260503193109 71 326 6.1 12.2 0.00 0.00 0.00 19 1011.9
20260503191553 70 318 7.0 13.9 0.00 0.00 0.00 18 1012.2
20260503190059 71 295 0.0 13.0 0.00 0.00 0.00 18 1012.3
20260503184512 70 294 1.7 17.4 0.00 0.00 0.00 19 1012.4
20260503183014 70 266 2.6 13.0 0.00 0.00 0.00 20 1012.5
20260503181501 70 291 0.9 13.9 0.00 0.00 0.00 21 1012.6
20260503180100 70 269 4.3 14.8 0.00 0.00 0.00 19 1012.7
20260503174552 71 278 7.8 13.9 0.00 0.00 0.00 19 1012.9
20260503173108 70 288 0.9 12.2 0.00 0.00 0.00 22 1013.0
20260503171514 70 304 1.7 8.7 0.00 0.00 0.00 23 1013.0
20260503140113 54 290 0.0 3.5 0.00 0.00 0.00 59 1013.5